TimeCST,TemperatureF,Dew PointF,Humidity,Sea Level PressureIn,VisibilityMPH,Wind Direction,Wind SpeedMPH,Gust SpeedMPH,PrecipitationIn,Events,Conditions,WindDirDegrees,DateUTC
12:32 AM,69.8,66.2,88,30.14,10.0,SSE,9.2,-,N/A,,Mostly Cloudy,160,2012-12-02 06:32:00
12:53 AM,69.1,66.9,93,30.14,10.0,SSE,9.2,-,N/A,,Mostly Cloudy,160,2012-12-02 06:53:00
1:11 AM,68.0,66.2,94,30.14,10.0,SSE,10.4,-,N/A,,Mostly Cloudy,160,2012-12-02 07:11:00
1:51 AM,68.0,66.2,94,30.14,10.0,SSE,5.8,-,N/A,,Mostly Cloudy,160,2012-12-02 07:51:00
1:53 AM,68.0,66.0,93,30.14,10.0,SSE,6.9,-,N/A,,Mostly Cloudy,160,2012-12-02 07:53:00
2:53 AM,68.0,66.0,93,30.14,10.0,SSE,5.8,-,N/A,,Overcast,150,2012-12-02 08:53:00
3:45 AM,66.2,64.4,94,30.14,10.0,East,4.6,-,N/A,,Scattered Clouds,100,2012-12-02 09:45:00
3:53 AM,66.0,64.9,96,30.14,7.0,East,3.5,-,N/A,,Mostly Cloudy,90,2012-12-02 09:53:00
4:53 AM,64.0,64.0,100,30.15,7.0,East,5.8,-,N/A,,Mostly Cloudy,100,2012-12-02 10:53:00
5:14 AM,64.4,64.4,100,30.15,6.0,ESE,3.5,-,N/A,,Mostly Cloudy,110,2012-12-02 11:14:00
5:53 AM,64.9,64.0,97,30.16,6.0,East,4.6,-,N/A,,Mostly Cloudy,90,2012-12-02 11:53:00
6:00 AM,64.4,64.4,100,30.16,7.0,East,4.6,-,N/A,,Mostly Cloudy,90,2012-12-02 12:00:00
6:53 AM,64.0,64.0,100,30.17,7.0,East,3.5,-,N/A,,Partly Cloudy,90,2012-12-02 12:53:00
7:53 AM,66.9,66.0,97,30.19,3.0,ESE,8.1,-,N/A,,Mostly Cloudy,110,2012-12-02 13:53:00
8:06 AM,68.0,66.2,94,30.19,2.5,ESE,8.1,-,N/A,,Scattered Clouds,110,2012-12-02 14:06:00
8:28 AM,69.8,66.2,88,30.20,3.0,ESE,5.8,-,N/A,,Scattered Clouds,110,2012-12-02 14:28:00
8:53 AM,72.0,68.0,87,30.20,5.0,ESE,5.8,-,N/A,,Overcast,120,2012-12-02 14:53:00
9:53 AM,73.9,66.9,79,30.21,8.0,SE,8.1,-,N/A,,Mostly Cloudy,130,2012-12-02 15:53:00
10:53 AM,80.1,66.0,62,30.20,10.0,SSE,13.8,-,N/A,,Scattered Clouds,160,2012-12-02 16:53:00
11:17 AM,78.8,66.2,65,30.19,10.0,SSE,10.4,-,0.01,,Mostly Cloudy,160,2012-12-02 17:17:00
11:51 AM,80.6,66.2,61,30.18,10.0,SSE,12.7,23.0,0.01,,Mostly Cloudy,160,2012-12-02 17:51:00
11:53 AM,80.1,66.0,62,30.17,10.0,SSE,15.0,-,0.01,,Mostly Cloudy,150,2012-12-02 17:53:00
12:07 PM,80.6,64.4,58,30.17,10.0,South,13.8,-,N/A,,Scattered Clouds,180,2012-12-02 18:07:00
12:53 PM,79.0,64.0,60,30.15,10.0,South,11.5,-,N/A,,Partly Cloudy,180,2012-12-02 18:53:00
1:53 PM,80.1,64.0,58,30.13,10.0,South,15.0,-,N/A,,Mostly Cloudy,170,2012-12-02 19:53:00
2:53 PM,78.1,64.0,62,30.12,10.0,SSE,12.7,-,N/A,,Mostly Cloudy,160,2012-12-02 20:53:00
3:53 PM,75.9,64.9,69,30.12,10.0,SSE,13.8,-,N/A,,Mostly Cloudy,160,2012-12-02 21:53:00
4:00 PM,75.2,64.4,69,30.12,10.0,SSE,12.7,-,N/A,,Scattered Clouds,150,2012-12-02 22:00:00
4:53 PM,73.0,66.0,79,30.13,10.0,SSE,10.4,-,N/A,,Clear,150,2012-12-02 22:53:00
5:53 PM,68.0,64.9,90,30.14,10.0,ESE,5.8,-,N/A,,Clear,120,2012-12-02 23:53:00
6:50 PM,68.0,66.2,94,30.14,10.0,ESE,8.1,-,N/A,,Mostly Cloudy,120,2012-12-03 00:50:00
6:53 PM,68.0,66.0,93,30.14,10.0,ESE,6.9,-,N/A,,Overcast,120,2012-12-03 00:53:00
7:03 PM,68.0,66.2,94,30.14,10.0,ESE,6.9,-,N/A,,Mostly Cloudy,120,2012-12-03 01:03:00
7:53 PM,69.1,66.0,90,30.14,10.0,ESE,9.2,-,N/A,,Overcast,120,2012-12-03 01:53:00
8:53 PM,69.1,66.0,90,30.14,10.0,SE,8.1,-,N/A,,Overcast,140,2012-12-03 02:53:00
9:53 PM,69.1,66.0,90,30.14,10.0,SSE,9.2,-,N/A,,Overcast,160,2012-12-03 03:53:00
10:01 PM,69.8,66.2,88,30.14,10.0,SSE,9.2,-,N/A,,Overcast,160,2012-12-03 04:01:00
10:53 PM,68.0,64.0,87,30.13,10.0,South,5.8,-,N/A,,Overcast,180,2012-12-03 04:53:00
11:53 PM,66.9,64.0,90,30.13,10.0,SE,4.6,-,N/A,,Overcast,140,2012-12-03 05:53:00